Doha, Qatar

1:04 PM +03 on July 24, 2017 (GMT +0300)
Doha International

Weather History for OTBD - April, 2014

Change the Weather History Date:

Monday, April 14, 2014

  Actual Average Record
Temperature  
Mean Temperature 87 °F -  
Max Temperature 101 °F 95 °F 102 °F (2017)
Min Temperature 73 °F 73 °F 64 °F (1997)
Cooling Degree Days 22    
Growing Degree Days 37 (Base 50)    
Moisture  
Dew Point 56 °F    
Average Humidity 36    
Maximum Humidity 78    
Minimum Humidity 7    
Precipitation  
Precipitation 0.00 in 0.01 in - ()
Sea Level Pressure  
Sea Level Pressure 29.85 in    
Wind  
Wind Speed 6 mph ()    
Max Wind Speed 15 mph    
Max Gust Speed -    
Visibility 7.0 miles    
Events      
Averages and records for this station are not official NWS values.
T = Trace of Precipitation, MM = Missing Value Source: Averaged Metar Reports

Daily Weather History Graph

Daily Weather History Graph

Search for Another Location

Airport or City:

Trip Planner

Search our weather history database for the weather conditions in past years. The results will help you decide how hot, cold, wet, or windy it might be!

Date:

Astronomy

Apr. 14, 2014 Rise Set
Actual Time 5:12 AM +03 5:55 PM +03
Civil Twilight 4:49 AM +03 6:19 PM +03
Nautical Twilight 4:21 AM +03 6:46 PM +03
Astronomical Twilight 3:53 AM +03 7:14 PM +03
Moon 5:14 PM +03 (4/14) 4:24 AM +03 (4/14)
Length of Visible Light 13h 30m
Length of Day
12h 43m
Waxing Gibbous, 99% of the Moon is Illuminated
Apr 14
Waxing Gibbous
Apr 15
Full
Apr 22
Last Quarter
Apr 29
New
May 7
First Quarter

Hourly Weather History & Observations

Time (+03) Temp. Heat Index Dew Point Humidity Pressure Visibility Wind Dir Wind Speed Gust Speed Precip Events Conditions
12:00 AM 85 °F - 49 °F 19% 29.87 in 10 mi NNW 6.9 mph - -   Clear
12:00 AM 84.2 °F - 48.2 °F 29% 29.86 in - NNW 6.9 mph - N/A   Clear
12:30 AM 84.2 °F - 48.2 °F 29% 29.86 in - North 6.9 mph - N/A   Clear
1:00 AM 82.4 °F - 51.8 °F 35% 29.83 in - North 5.8 mph - N/A   Clear
2:00 AM 84.2 °F 82.8 °F 53.6 °F 35% 29.83 in - North 8.1 mph - N/A   Clear
2:30 AM 84.2 °F 82.8 °F 53.6 °F 35% 29.83 in - North 6.9 mph - N/A   Clear
3:00 AM 83 °F - 56 °F 29% 29.83 in 10 mi NNW 5.8 mph - -   Clear
3:00 AM - - - N/A% - - NNW 5.8 mph - N/A   Clear
3:30 AM 80.6 °F 81.1 °F 59.0 °F 48% 29.80 in - Variable 2.3 mph - N/A   Clear
4:00 AM 80.6 °F 81.5 °F 60.8 °F 51% 29.80 in - Variable 2.3 mph - N/A   Clear
4:30 AM 82.4 °F 82.0 °F 57.2 °F 42% 29.80 in - Calm Calm - N/A   Clear
5:00 AM 82.4 °F 81.4 °F 53.6 °F 37% 29.83 in - SW 3.5 mph - N/A   Clear
5:30 AM 80.6 °F - 51.8 °F 37% 29.83 in 5.6 mi WSW 4.6 mph - N/A   Unknown
6:00 AM 82 °F - 51 °F 24% 29.86 in 5 mi WSW 5.8 mph - -   Widespread Dust
6:00 AM 82.4 °F - 51.8 °F 35% 29.86 in 5.0 mi WSW 5.8 mph - N/A   Unknown
6:30 AM 84.2 °F 83.5 °F 57.2 °F 40% 29.86 in 5.0 mi WSW 3.5 mph - N/A   Unknown
7:00 AM 86.0 °F - 51.8 °F 31% 29.86 in 5.0 mi West 3.5 mph - N/A   Unknown
8:00 AM 87.8 °F 85.7 °F 53.6 °F 31% 29.89 in - NW 6.9 mph - N/A   Clear
8:30 AM 89.6 °F 87.3 °F 53.6 °F 29% 29.89 in - NNW 9.2 mph - N/A   Clear
9:00 AM 91 °F - 54 °F 19% 29.90 in 7 mi NNW 6.9 mph - -   Clear
9:00 AM 91.4 °F 89.1 °F 53.6 °F 28% 29.89 in - NNW 6.9 mph - N/A   Clear
10:00 AM 95.0 °F - 48.2 °F 20% 29.89 in - North 8.1 mph - N/A   Clear
10:30 AM 96.8 °F - 48.2 °F 19% 29.89 in - North 6.9 mph - N/A   Clear
11:00 AM 98.6 °F - 51.8 °F 21% 29.89 in - North 3.5 mph - N/A   Clear
11:30 AM 100.4 °F - 50.0 °F 18% 29.89 in - North 4.6 mph - N/A   Clear
12:00 PM 101 °F - 43 °F 7% 29.88 in 7 mi NE 6.9 mph - -   Scattered Clouds
12:00 PM 100.4 °F - 42.8 °F 14% 29.86 in - NE 6.9 mph - N/A   Clear
12:30 PM 100.4 °F - 46.4 °F 16% 29.86 in - East 9.2 mph - N/A   Clear
1:00 PM 98.6 °F - 51.8 °F 21% 29.86 in - East 8.1 mph - N/A   Clear
2:00 PM 95.0 °F - 51.8 °F 23% 29.83 in - East 9.2 mph - N/A   Clear
2:30 PM 95.0 °F 92.7 °F 53.6 °F 25% 29.83 in - East 9.2 mph - N/A   Clear
3:00 PM 95 °F - 51 °F 14% 29.83 in 10 mi East 8.1 mph - -   Scattered Clouds
3:00 PM 95.0 °F - 51.8 °F 23% 29.83 in - East 8.1 mph - N/A   Clear
3:30 PM 93.2 °F 91.9 °F 57.2 °F 30% 29.83 in - East 8.1 mph - N/A   Clear
4:00 PM 93.2 °F - 51.8 °F 24% 29.83 in - NE 10.4 mph - N/A   Clear
5:00 PM 87.8 °F 88.5 °F 62.6 °F 43% 29.83 in - NNE 15.0 mph - N/A   Clear
5:30 PM 86.0 °F 86.1 °F 60.8 °F 43% 29.83 in - North 15.0 mph - N/A   Clear
6:00 PM 85 °F - 63 °F 38% 29.85 in 7 mi North 12.7 mph - -   Scattered Clouds
6:00 PM 84.2 °F 85.0 °F 62.6 °F 48% 29.83 in - North 12.7 mph - N/A   Clear
6:30 PM 84.2 °F 85.0 °F 62.6 °F 48% 29.83 in - North 11.5 mph - N/A   Clear
7:00 PM 84.2 °F 85.0 °F 62.6 °F 48% 29.83 in - North 11.5 mph - N/A   Clear
7:30 PM 82.4 °F 83.9 °F 64.4 °F 54% 29.83 in - North 10.4 mph - N/A   Clear
8:00 PM 73.4 °F - 66.2 °F 78% 29.83 in - North 9.2 mph - N/A   Clear
8:30 PM 82.4 °F 85.4 °F 68.0 °F 62% 29.86 in - North 10.4 mph - N/A   Clear
9:00 PM 82 °F - 68 °F 53% 29.86 in 7 mi North 9.2 mph - -   Clear
9:00 PM 82.4 °F 85.4 °F 68.0 °F 62% 29.86 in - North 9.2 mph - N/A   Clear
9:30 PM 80.6 °F 83.2 °F 68.0 °F 65% 29.83 in - North 8.1 mph - N/A   Clear
10:00 PM 80.6 °F 83.2 °F 68.0 °F 65% 29.83 in - North 6.9 mph - N/A   Clear
11:00 PM 80.6 °F 83.2 °F 68.0 °F 65% 29.83 in - North 6.9 mph - N/A   Clear